Location: Austin
(30.3000°N, 97.7500°W)
Time: 05:19:37
(UTC-06:00)

Cosmos 2221 - Pass Details

Date: 03 March 2026
Orbit: 569 x 588 km, 82.5° (Epoch: 5 March)

Event Time Altitude Azimuth Distance (km) Brightness Sun altitude
Rises 20:38:21 0° 346° (NNW) 2,792 6.2 -28.1°
Reaches altitude 10° 20:40:37 10° 340° (NNW) 1,887 5.4 -28.6°
Enters shadow 20:43:04 31° 319° (NW) 1,021 4.0 -29.1°
